Showing default

EAGLET 1, 43790

Orbit data source: Space-Track

EAGLET 1, 43790 is a payload satellite owned by OHB-I (IT) in SSO that was launched on Mon, 03 Dec 2018 UTC via an FALCON 9 launch vehicle from the Air Force Western Test Range (AFWTR). Payloads include a variety of satellites, spacecraft, and rockets equipped with specific instruments for various scientific and technological missions. These include communications satellites like Starlink; space stations such as the ISS; scientific satellites like the Hubble; Earth observation satellites from companies like Planet Labs, Umbra, and HawkEye 360; GPS; miniature CubeSats for education and research; and military/defense satellites.

Loading next visibility...
EAGLET 1 details
Identifier
43790, 2018-099AJ
Orbit
SSO
Last TLE update9 hours ago
Origin
Flag of ITOHB-I (IT)
ManufacturerOHB-I
MissionOperational Commercial Technology
Bus & MotorCUBESAT 3U, Unknown motor
Mass5 kg wet, 5 kg dry
Launch date (UTC)
2018-12-03 (6 years ago)
Launch vehicle
FALCON 9
Launch site
Air Force Western Test Range (AFWTR)
Object type
Payload
Rocket body
Debris
Shape & HBRBox + 2 Pan, 0.3 m
Radar Cross Section0.035 m², Small (<0.1 m²)

Expand to show TLE details & history

TLE from 9 hours ago
0 EAGLET 1
1 43790U 18099AJ  24361.11673358  .00009141  00000-0  62170-3 0  9994
2 43790  97.5034  53.6678 0013527  40.7857 319.4380 15.06475093331136
Epoch: 2024-12-26T02:48Z
Definitive object data (Epoch: 2024-12-26T02:48:05.781Z)
Latitude-0.00006°
Longitude-83.45702°
Altitude542.938 km
Speed7.595 km/s
True Right ascension03h 34m 40s
True Declination0° 00' 00"
Sunlit
Object was in full shadow at TLE epoch
Visualization TLE readout
Latitude-47.83772°
Longitude-74.76015°
Altitude565.125 km
Speed7.577 km/s
Apparent Right ascension01h 46m 12s
Apparent Declination-49° 30' 09"
Sunlit
Object is in daylight
Visualization observer readout
Local Sidereal Time11:30:38
Azimuth236.76° WSW
Elevation-64.344°
Doppler factor1
Orbital elements
Apogee altitude553.333 km
Perigee altitude534.606 km
Semi-major axis6,922.106 km
Eccentricity0.0013527
Inclination97.5034°
RAAN53.6678°
Arg. of periapsis40.7857°
True anomaly319.33707°
Mean anomaly319.438°
Eccentric anomaly319.38755°
Mean motion3.76865 °/min
BSTAR0.0006217
Orbital period95.52 mins
Loading maneuver chart data...
Loading historical data...
Loading historical data...
Loading historical data...
Loading historical data...
Loading historical data...
Loading historical data...
Loading historical data...

EAGLET 1 Visibility forecast

Observer location: undefined°, undefined

Span
Click to sort rows by Start time (UTC) header in descending order
Start Az.
Max El. time (UTC)
Max El. Az.
Max El.
End time (UTC)
End Az.
7 mins2024-12-26 16:07:10.649Z30.72° NE2024-12-26 16:10:10.649Z83.689° E30.707°2024-12-26 16:14:10.649Z166.764° S
4 mins2024-12-27 04:27:10.649Z224.274° SW2024-12-27 04:29:10.649Z275.323° WNW24.696°2024-12-27 04:31:10.649Z314.876° NW
|